Regional Weather Roundup
Issued by NWS Spokane, WA

Home | Current Version | Previous Version | Text Only | Print | Product List | Glossary On
Versions: 1 2 3 4 5 6 7 8 9 10 11 12 13 14 15 16 17 18 19 20 21 22 23 24 25 26 27 28 29 30 31 32 33 34 35 36 37 38 39 40 41 42 43 44 45 46 47 48 49 50
000
NZUS01 KOTX 192225
RWROTX

Eastern Washington/Northern Idaho Roundup
National Weather Service, Spokane WA
200 PM PST THU JAN 19 2017

Note: "fair" indicated few or no clouds below 12,000 feet with no
significant weather and/or obstructions to visibility.

...Northeast Washington and Northern Idaho Panhandle...

CITY           SKY/WX    TMP DP  RH WIND       PRES   REMARKS
Spokane Intl   PTSUNNY   39  33  79 SW8       29.55F
Spokane Downto MOSUNNY   42  34  73 S8        29.57F
Coeur d Alene  CLOUDY    40  35  83 S7        29.57S
Deer Park      CLOUDY    37  33  85 S5        29.56S
Sandpoint      LGT RAIN  37  37 100 CALM      29.56S
Bonners Ferry  MOCLDY    39  36  87 SW3       29.54R

...Southeast Washington and southern Idaho Panhandle...

CITY           SKY/WX    TMP DP  RH WIND       PRES   REMARKS
Walla Walla    MOSUNNY   48  36  63 W3        29.58F
Pullman/Moscow CLOUDY    37  32  82 SE8       29.60S
Lewiston       CLOUDY    41  35  79 CALM      29.61F
Lowell           N/A     35  33  92 N3        29.67S
Grangeville    CLOUDY    34  34 100 CALM      29.60S

...Columbia Basin...

CITY           SKY/WX    TMP DP  RH WIND       PRES   REMARKS
Ephrata        CLOUDY    34  29  82 CALM      29.56S HAZE
Moses Lake     FOG       32  31  96 CALM      29.57S VSB<1/4
Pasco          SUNNY     40  36  86 SE3       29.60F
Richland       CLEAR     40  35  82 CALM      29.60S
Hermiston      SUNNY     40  34  79 S3        29.59F HAZE
Pendleton      SUNNY     41  34  76 N7        29.57F

...East Slopes Cascades...

CITY           SKY/WX    TMP DP  RH WIND       PRES   REMARKS
The Dalles     MOSUNNY   36  33  89 CALM      29.62F FOG
Yakima         FOG       35  34  96 CALM      29.57F VSB 1/2
Ellensburg     CLOUDY    35  32  88 CALM      29.54S FOG
Stampede Pass  LGT SNOW  33  31  92 CALM      29.46S FOG
Wenatchee      MOSUNNY   31  27  85 CALM      29.55F
Omak           CLOUDY    34  30  85 SE7       29.56S WCI  28
Sunnyside        N/A     29  28  96 SE5       29.58S FOG     WCI  24

...Southern British Columbia...

CITY           SKY/WX    TMP DP  RH WIND       PRES   REMARKS
Penticton      PTSUNNY   39  34  81 S13G22    29.51S
Castlegar      PTSUNNY   37  36  93 S8        29.54S
Cranbrook      PTSUNNY   41  30  65 S7        29.45S
Osoyoos          N/A     36  34  93 SE7         N/A
Creston          N/A     41  36  81 SE5         N/A

...Western Montana...

CITY           SKY/WX    TMP DP  RH WIND       PRES   REMARKS
Kalispell      CLOUDY    36  32  85 N3        29.51S FOG
Missoula       LGT RAIN  34  33  96 CALM      29.56S FOG

...Neighboring Cities...

CITY           SKY/WX    TMP DP  RH WIND       PRES   REMARKS
Seattle        LGT RAIN  47  42  83 S13       29.50F
Portland       PTSUNNY   52  40  63 S16       29.58F
Boise          CLOUDY    37  32  82 SE8       29.66F
Great Falls    CLOUDY    42  28  57 SW15      29.44F
Calgary        MOSUNNY   50  18  27 W15       29.24S



USA.gov is the U.S. government's official web portal to all federal, state and local government web resources and services.